Location: Cambridge
(43.3830°N, 80.3170°W)
Time: 20:41:51
(UTC-04:00)

Envisat - Pass Details

Date: 23 March 2019
Orbit: 764 x 766 km, 98.1° (Epoch: 15 October)

Event Time Altitude Azimuth Distance (km) Brightness Sun altitude
Rises 20:40:47 0° 191° (S) 3,215 6.2 -12.3°
Reaches altitude 10° 20:43:17 10° 200° (SSW) 2,294 5.6 -12.7°
Maximum altitude 20:47:49 33° 264° (W) 1,276 4.9 -13.5°
Drops below altitude 10° 20:52:23 10° 328° (NNW) 2,310 6.2 -14.3°
Sets 20:54:55 0° 338° (NNW) 3,241 6.8 -14.8°
